ELEKTRO-L 3

Last updated on Sun Apr 12 2026 00:02:39 GMT+0000 (Coordinated Universal Time)

1 44903U 19095A 26101.53577078 -.00000095 00000+0 00000+0 0 9999 2 44903 0.0856 68.8620 0001308 312.0711 87.6497 1.00272443 23041
UTC large
Height (km)
Speed (km/s)
/
Latitude / Longitude
Inclination (degrees)
Orbital Period (minutes)
Azimuth
Elevation
Range (km)
Doppler Factor

Next 0 passes for location: London (51.5072 / 0.1276)

Sorry there are no passes over London.
ELEKTRO-L 3